FW4628 Weather Reports


Display with metric or nautical units.
time (UTC)temp
F
wind
direction
speed
MPH
gust
MPH
rain 1hr
in
rain 24hr
in
rain mn
in
humidity
%
barometer
mb
20260906000549 72 304 0.0 4.0 0.00 0.01 0.00 52 1005.6
20260906000518 72 305 0.0 4.0 0.00 0.01 0.00 52 1005.6
20260906000024 72 304 0.0 5.0 0.00 0.01 0.00 53 1005.6
20260906000009 72 304 0.0 5.0 0.00 0.01 0.00 53 1005.7
20260905235549 72 304 1.0 6.0 0.00 0.01 0.00 52 1005.7
20260905235504 72 304 1.0 6.0 0.00 0.01 0.00 52 1005.7
20260905235127 72 304 2.0 6.0 0.00 0.01 0.00 52 1005.6
20260905235035 72 304 2.0 6.0 0.00 0.01 0.00 53 1005.7
20260905234535 72 51 1.0 6.0 0.00 0.01 0.00 54 1005.6
20260905234502 72 51 2.0 6.0 0.00 0.01 0.00 54 1005.6
20260905234007 72 51 1.0 6.0 0.00 0.01 0.00 54 1005.6
20260905233949 72 225 1.0 5.0 0.00 0.01 0.00 54 1005.7
20260905233635 71 225 1.0 6.0 0.00 0.01 0.00 54 1005.7
20260905233536 72 225 1.0 6.0 0.00 0.01 0.00 53 1005.7
20260905233049 71 225 0.0 6.0 0.00 0.01 0.00 53 1005.8
20260905233005 71 225 1.0 6.0 0.00 0.01 0.00 55 1005.7
20260905232613 70 119 0.0 4.0 0.00 0.01 0.00 56 1005.7
20260905232526 71 123 1.0 4.0 0.00 0.01 0.00 55 1005.8
20260905232022 70 123 0.0 4.0 0.00 0.01 0.00 55 1005.8
20260905231957 70 123 1.0 4.0 0.00 0.01 0.00 55 1005.7
20260905231610 69 123 0.0 4.0 0.00 0.01 0.00 55 1005.8
20260905231520 70 123 1.0 3.0 0.00 0.01 0.00 55 1005.9
20260905231110 69 123 2.0 7.0 0.00 0.01 0.00 55 1005.9
20260905231020 70 123 3.0 7.0 0.00 0.01 0.00 55 1005.9
20260905230617 69 123 4.0 7.0 0.00 0.01 0.00 54 1005.9
20260905230535 70 123 4.0 7.0 0.00 0.01 0.00 55 1005.9
20260905230031 69 262 1.0 6.0 0.00 0.01 0.00 56 1006.0
20260905230009 70 262 1.0 6.0 0.00 0.01 0.00 56 1006.0
20260905225553 69 262 2.0 5.0 0.00 0.01 0.00 55 1006.0
20260905225456 69 262 2.0 5.0 0.00 0.01 0.00 55 1006.0
20260905225031 69 262 1.0 5.0 0.00 0.01 0.00 55 1006.0
20260905224950 69 262 2.0 5.0 0.00 0.01 0.00 55 1006.0
20260905224604 69 262 1.0 7.0 0.00 0.01 0.00 57 1006.1
20260905224512 69 262 1.0 7.0 0.00 0.01 0.00 56 1006.1
20260905224037 69 262 2.0 6.0 0.00 0.01 0.00 57 1006.1
20260905224002 69 262 2.0 6.0 0.00 0.01 0.00 57 1006.2
20260905223559 69 261 1.0 6.0 0.00 0.01 0.00 57 1006.2
20260905223457 69 261 1.0 6.0 0.00 0.01 0.00 57 1006.1
20260905223037 69 261 1.0 6.0 0.00 0.01 0.00 57 1006.1
20260905222952 69 257 2.0 6.0 0.00 0.01 0.00 57 1006.1
20260905222609 68 256 0.0 2.0 0.00 0.04 0.00 58 1006.2
20260905222516 69 256 0.0 2.0 0.00 0.04 0.00 58 1006.2
20260905222030 68 256 0.0 6.0 0.00 0.04 0.00 57 1006.2
20260905222009 69 256 1.0 6.0 0.00 0.04 0.00 56 1006.2
20260905221600 68 256 1.0 6.0 0.00 0.04 0.00 57 1006.3
20260905221501 69 256 1.0 6.0 0.00 0.04 0.00 57 1006.3
20260905221018 68 257 1.0 6.0 0.00 0.04 0.00 57 1006.3
20260905220951 69 256 2.0 6.0 0.00 0.04 0.00 57 1006.3
20260905220548 68 256 1.0 6.0 0.00 0.04 0.00 57 1006.4
20260905220449 69 256 2.0 6.0 0.00 0.04 0.00 57 1006.4
20260905220055 68 255 0.0 5.0 0.00 0.04 0.00 59 1006.4
20260905220009 69 257 1.0 5.0 0.00 0.04 0.00 59 1006.4
20260905215524 68 257 1.0 5.0 0.00 0.04 0.00 58 1006.4
20260905215456 69 257 1.0 5.0 0.00 0.04 0.00 58 1006.4
20260905215053 69 257 0.0 4.0 0.00 0.04 0.00 59 1006.5
20260905214948 69 257 0.0 4.0 0.00 0.04 0.00 59 1006.4
20260905214528 69 257 0.0 4.0 0.00 0.04 0.00 59 1006.5
20260905214512 69 257 1.0 4.0 0.00 0.04 0.00 58 1006.5
20260905214041 68 257 0.0 4.0 0.00 0.04 0.00 59 1006.5
20260905214017 69 257 0.0 4.0 0.00 0.04 0.00 58 1006.5
20260905213609 68 257 1.0 6.0 0.00 0.04 0.00 57 1006.5
20260905213507 69 257 1.0 6.0 0.00 0.04 0.00 57 1006.5
20260905213039 68 257 1.0 7.0 0.00 0.04 0.00 58 1006.5
20260905212959 69 257 2.0 7.0 0.00 0.04 0.00 58 1006.5
20260905212612 68 257 2.0 7.0 0.00 0.08 0.00 59 1006.6
20260905212522 69 257 2.0 7.0 0.00 0.08 0.00 59 1006.6
20260905212020 68 257 1.0 7.0 0.00 0.08 0.00 59 1006.5
20260905211948 68 257 2.0 7.0 0.00 0.08 0.00 59 1006.6
20260905211550 68 308 1.0 5.0 0.00 0.08 0.00 60 1006.5
20260905211510 68 308 2.0 5.0 0.00 0.08 0.00 60 1006.6
20260905211021 67 308 1.0 5.0 0.00 0.08 0.00 60 1006.6
20260905211002 68 308 2.0 5.0 0.00 0.08 0.00 60 1006.6
20260905210547 67 308 0.0 6.0 0.00 0.08 0.00 62 1006.6
20260905210455 68 308 0.0 6.0 0.00 0.08 0.00 61 1006.6
20260905210017 67 308 3.0 6.0 0.00 0.08 0.00 59 1006.7
20260905205953 68 308 3.0 6.0 0.00 0.08 0.00 60 1006.7
20260905205545 67 308 1.0 3.0 0.00 0.08 0.00 60 1006.8
20260905205449 68 308 2.0 3.0 0.00 0.08 0.00 60 1006.7
20260905205025 68 308 1.0 4.0 0.00 0.08 0.00 60 1006.8
20260905205013 68 308 1.0 4.0 0.00 0.08 0.00 60 1006.8
20260905204542 68 308 0.0 4.0 0.00 0.08 0.00 60 1006.8
20260905204506 68 309 1.0 4.0 0.00 0.08 0.00 60 1006.8
20260905204014 68 309 0.0 4.0 0.00 0.08 0.00 59 1006.8
20260905203958 68 309 1.0 4.0 0.00 0.08 0.00 59 1006.8
20260905203545 68 309 0.0 4.0 0.00 0.08 0.00 61 1006.8
20260905203457 68 309 0.0 4.0 0.00 0.08 0.00 61 1006.8
20260905203059 68 309 0.0 4.0 0.00 0.08 0.00 61 1006.8
20260905203020 68 309 0.0 4.0 0.00 0.08 0.00 62 1006.8
20260905202510 68 306 0.0 5.0 0.00 0.08 0.00 61 1006.8
20260905202449 68 309 1.0 5.0 0.00 0.08 0.00 61 1006.8
20260905202135 68 309 1.0 5.0 0.00 0.08 0.00 62 1006.8
20260905202011 68 308 2.0 5.0 0.00 0.08 0.00 62 1006.8
20260905201539 68 309 0.0 5.0 0.00 0.08 0.00 62 1006.8
20260905201501 68 309 1.0 4.0 0.00 0.08 0.00 65 1006.8
20260905201011 67 309 0.0 4.0 0.00 0.08 0.00 66 1006.8
20260905200948 68 309 1.0 4.0 0.00 0.08 0.00 66 1006.8
20260905200543 67 309 0.0 4.0 0.00 0.08 0.00 66 1006.8
20260905200508 67 309 0.0 4.0 0.00 0.08 0.00 66 1006.9
20260905200016 67 309 0.0 6.0 0.00 0.08 0.00 67 1006.9
20260905200000 67 309 1.0 6.0 0.00 0.08 0.00 66 1006.8
20260905195539 67 308 1.0 6.0 0.00 0.08 0.00 66 1007.0
20260905195451 67 308 1.0 6.0 0.00 0.08 0.00 66 1006.9
20260905195109 66 17 1.0 5.0 0.00 0.08 0.00 66 1006.9
20260905195015 67 17 1.0 5.0 0.00 0.08 0.00 66 1006.9
20260905194546 66 19 0.0 2.0 0.00 0.08 0.00 69 1007.0
20260905194510 66 19 0.0 2.0 0.00 0.08 0.00 69 1007.0
20260905194059 66 19 0.0 0.0 0.00 0.08 0.00 68 1007.0
20260905194009 66 19 0.0 0.0 0.00 0.08 0.00 68 1007.0
20260905193523 66 19 0.0 0.0 0.00 0.08 0.00 69 1007.0
20260905193456 66 19 0.0 0.0 0.00 0.08 0.00 69 1007.0
20260905193054 66 19 0.0 5.0 0.00 0.08 0.00 69 1007.1
20260905192951 66 19 0.0 5.0 0.00 0.08 0.00 70 1007.1
20260905192532 65 19 0.0 5.0 0.00 0.08 0.00 69 1007.1
20260905192510 66 19 1.0 5.0 0.00 0.08 0.00 69 1007.2
20260905192038 65 19 0.0 5.0 0.00 0.08 0.00 70 1007.2
20260905192009 66 19 0.0 5.0 0.00 0.08 0.00 70 1007.1
20260905191515 65 19 1.0 8.0 0.00 0.08 0.00 70 1007.1
20260905191459 65 19 1.0 8.0 0.00 0.08 0.00 70 1007.3
20260905191033 64 19 2.0 8.0 0.00 0.08 0.00 69 1007.2
20260905190951 65 18 3.0 8.0 0.00 0.08 0.00 69 1007.3
20260905190513 64 336 1.0 6.0 0.00 0.08 0.00 70 1007.3
20260905190446 65 336 1.0 6.0 0.00 0.08 0.00 70 1007.3
20260905190048 64 15 0.0 5.0 0.00 0.08 0.00 70 1007.3
20260905190004 65 15 0.0 5.0 0.00 0.08 0.00 71 1007.3
20260905185511 64 15 0.0 5.0 0.00 0.08 0.00 71 1007.3
20260905185456 64 13 1.0 5.0 0.00 0.08 0.00 72 1007.4
20260905185037 64 15 0.0 5.0 0.00 0.08 0.00 73 1007.3
20260905184948 64 15 1.0 5.0 0.00 0.08 0.00 73 1007.3
20260905184614 64 15 0.0 6.0 0.00 0.08 0.00 74 1007.3
20260905184513 64 15 1.0 6.0 0.00 0.08 0.00 74 1007.4
20260905184052 63 15 1.0 6.0 0.00 0.08 0.00 74 1007.4
20260905184007 64 17 1.0 6.0 0.00 0.08 0.00 73 1007.4
20260905183526 63 355 0.0 5.0 0.00 0.08 0.00 73 1007.5
20260905183502 64 355 1.0 5.0 0.00 0.08 0.00 72 1007.5
20260905183049 63 355 0.0 5.0 0.00 0.08 0.00 74 1007.5
20260905182950 63 355 1.0 5.0 0.00 0.08 0.00 75 1007.5
20260905182528 63 355 1.0 4.0 0.00 0.08 0.00 75 1007.6
20260905182447 63 355 1.0 4.0 0.00 0.08 0.00 76 1007.6
20260905182037 62 355 0.0 4.0 0.00 0.08 0.00 77 1007.7
20260905182008 63 355 1.0 4.0 0.00 0.08 0.00 77 1007.7
20260905181603 62 355 0.0 5.0 0.00 0.08 0.00 77 1007.7
20260905181502 63 355 0.0 5.0 0.00 0.08 0.00 77 1007.7
20260905181047 62 355 0.0 5.0 0.00 0.08 0.00 78 1007.7
20260905181030 62 355 0.0 5.0 0.00 0.08 0.00 78 1007.7
20260905180550 62 355 1.0 5.0 0.00 0.08 0.00 77 1007.7
20260905180457 62 355 1.0 5.0 0.00 0.08 0.00 78 1007.7
20260905180123 61 304 1.0 5.0 0.00 0.08 0.00 78 1007.8
20260905180000 62 20 1.0 4.0 0.00 0.08 0.00 78 1007.8
20260905175531 61 20 0.0 6.0 0.00 0.08 0.00 78 1007.8
20260905175448 62 20 1.0 6.0 0.00 0.08 0.00 78 1007.8
20260905175105 61 20 0.0 6.0 0.00 0.08 0.00 79 1007.8
20260905175004 62 20 0.0 6.0 0.00 0.08 0.00 80 1007.8
20260905174539 61 20 1.0 6.0 0.00 0.08 0.00 80 1007.8
20260905174459 61 20 1.0 6.0 0.00 0.08 0.00 80 1007.9
20260905174111 61 20 0.0 4.0 0.00 0.08 0.00 82 1007.8
20260905174018 61 18 0.0 4.0 0.00 0.08 0.00 82 1007.8
20260905173518 60 18 0.0 4.0 0.00 0.08 0.00 83 1007.8
20260905173449 61 18 0.0 4.0 0.00 0.08 0.00 83 1007.8
20260905173109 60 18 0.0 5.0 0.00 0.08 0.00 84 1007.8
20260905173009 60 19 1.0 5.0 0.00 0.08 0.00 84 1007.9
20260905172522 59 19 0.0 5.0 0.00 0.08 0.00 86 1007.8
20260905172501 60 19 1.0 5.0 0.00 0.08 0.00 86 1007.9
20260905172057 59 321 1.0 5.0 0.00 0.08 0.00 86 1007.8
20260905172028 60 321 2.0 5.0 0.00 0.08 0.00 86 1007.9
20260905171602 59 319 0.0 2.0 0.00 0.08 0.00 87 1007.9
20260905171457 59 5 0.0 2.0 0.00 0.08 0.00 87 1007.9
20260905171035 59 5 0.0 4.0 0.00 0.08 0.00 87 1007.8
20260905170953 59 5 0.0 4.0 0.00 0.08 0.00 87 1007.9
20260905170509 58 5 0.0 4.0 0.00 0.08 0.00 88 1007.8
20260905170448 59 5 0.0 4.0 0.00 0.08 0.00 88 1007.9
20260905170049 58 5 0.0 4.0 0.00 0.08 0.00 89 1007.9
20260905170010 59 5 0.0 4.0 0.00 0.08 0.00 89 1007.9
20260905165554 58 5 0.0 4.0 0.00 0.08 0.00 90 1007.9
20260905165459 58 5 0.0 4.0 0.00 0.08 0.00 90 1007.9
20260905165019 58 5 0.0 4.0 0.00 0.08 0.00 91 1008.0
20260905164948 58 5 0.0 4.0 0.00 0.08 0.00 91 1008.0
20260905164515 57 50 0.0 2.0 0.00 0.08 0.00 91 1007.9
20260905164457 58 50 0.0 2.0 0.00 0.08 0.00 91 1008.0
20260905164020 57 53 0.0 2.0 0.00 0.08 0.00 92 1007.9
20260905163947 58 53 0.0 2.0 0.00 0.08 0.00 92 1007.9
20260905163529 57 53 0.0 4.0 0.00 0.08 0.00 92 1007.9
20260905163443 58 53 0.0 4.0 0.00 0.08 0.00 92 1008.0
20260905163043 57 53 0.0 4.0 0.00 0.08 0.00 93 1007.9
20260905163002 57 53 1.0 4.0 0.00 0.08 0.00 93 1007.9
20260905162554 57 103 0.0 4.0 0.00 0.10 0.00 93 1007.9
20260905162452 57 103 0.0 4.0 0.00 0.10 0.00 93 1007.9
20260905162100 57 103 0.0 0.0 0.00 0.10 0.00 93 1007.9
20260905162008 57 103 0.0 0.0 0.00 0.10 0.00 93 1007.9
20260905161616 56 103 0.0 0.0 0.00 0.10 0.00 94 1008.0
20260905161509 57 103 0.0 4.0 0.00 0.10 0.00 94 1008.0